Kezdőlap
METAR-TAF:

METAR-TAF

Repülőterek :

Montevideo-Chippewa County Airport

Montevideo, Minnesota, Amerikai Egyesült Államok

földrajzi szélesség: 44-58N, földrajzi hosszúság: 095-43W, magasság: 315 m

Jelenlegi meteorológiai megfigyelések

A jelentés 13 perccel ezelõtt készült, 10:35 UTC
Szélcsend
Hőmérséklet -2°C
Páratartalom 93%
Légköri nyomás 1019 hPa
Látótávolság: 16.1 km
Derült ég

METAR: KMVE 231035Z AUTO 00000KT 10SM CLR M02/M03 A3008 RMK AO2

Idő: 05:48 (10:48 UTC)


TAF: hiányzik

Meteorológiai megfigyelések és előrejelzések több, mint 4000 repülőtéren (METAR és TAF jelentéseket).

A térképen piros és sárga pontok jelzik az elérhető meteorológiai állomásokat.

Mozgassa az egeret a pont fölött, hogy megjelenjen az állomás neve.

Azután kattintson az időjárási megfigyelések és előrejelzések megtekintéséhez.

A térkép megváltoztatása: kattintson a fekete keresztel jelölt zöld gombra ráközelítéshez, a vonallal jelölt zöld gombra távolításhoz, vagy a zöld nyilakra a szomszédos térképek eléréséhez.


METAR-TAF: